| time (UTC) | temp C | wind direction | speed KPH | gust KPH | rain 1hr cm | rain 24hr cm | rain mn cm | humidity % | barometer mb |
| 20260503225328 | 12 | 347 | 6.4 | 11.3 | 0.00 | 0.00 | 0.00 | 42 | 1011.0 |
| 20260503224327 | 11 | 60 | 6.4 | 8.0 | 0.00 | 0.00 | 0.00 | 45 | 1011.0 |
| 20260503223322 | 11 | 248 | 4.8 | 6.4 | 0.00 | 0.00 | 0.00 | 47 | 1011.1 |
| 20260503222322 | 11 | 331 | 3.2 | 8.0 | 0.00 | 0.00 | 0.00 | 47 | 1011.1 |
| 20260503221319 | 11 | 19 | 6.4 | 6.4 | 0.00 | 0.00 | 0.00 | 45 | 1011.2 |
| 20260503220317 | 12 | 273 | 8.0 | 11.3 | 0.00 | 0.00 | 0.00 | 44 | 1011.0 |
| 20260503215317 | 11 | 292 | 6.4 | 6.4 | 0.00 | 0.00 | 0.00 | 45 | 1011.2 |
| 20260503214312 | 11 | 257 | 8.0 | 11.3 | 0.00 | 0.00 | 0.00 | 45 | 1011.2 |
| 20260503213307 | 11 | 355 | 1.6 | 9.7 | 0.00 | 0.00 | 0.00 | 46 | 1011.1 |
| 20260503212301 | 11 | 0 | 3.2 | 8.0 | 0.00 | 0.00 | 0.00 | 46 | 1011.1 |
| 20260503211301 | 11 | 279 | 6.4 | 14.5 | 0.00 | 0.00 | 0.00 | 46 | 1011.0 |
| 20260503210259 | 11 | 241 | 3.2 | 12.9 | 0.00 | 0.00 | 0.00 | 46 | 1011.0 |
| 20260503205256 | 11 | 311 | 9.7 | 12.9 | 0.00 | 0.00 | 0.00 | 45 | 1010.8 |
| 20260503204256 | 11 | 231 | 3.2 | 20.9 | 0.00 | 0.00 | 0.00 | 46 | 1010.9 |
| 20260503203251 | 11 | 279 | 11.3 | 14.5 | 0.00 | 0.00 | 0.00 | 45 | 1011.1 |
| 20260503202246 | 11 | 312 | 3.2 | 11.3 | 0.00 | 0.00 | 0.00 | 44 | 1011.1 |
| 20260503201247 | 11 | 322 | 0.0 | 17.7 | 0.00 | 0.00 | 0.00 | 44 | 1011.1 |
| 20260503200245 | 11 | 15 | 3.2 | 8.0 | 0.00 | 0.00 | 0.00 | 45 | 1011.0 |
| 20260503195245 | 11 | 138 | 3.2 | 8.0 | 0.00 | 0.00 | 0.00 | 44 | 1011.5 |
| 20260503194244 | 11 | 329 | 9.7 | 22.5 | 0.00 | 0.00 | 0.00 | 42 | 1011.3 |
| 20260503193243 | 11 | 338 | 0.0 | 19.3 | 0.00 | 0.00 | 0.00 | 44 | 1011.5 |
| 20260503192239 | 11 | 345 | 6.4 | 19.3 | 0.00 | 0.00 | 0.00 | 42 | 1011.7 |
| 20260503191234 | 12 | 345 | 3.2 | 8.0 | 0.00 | 0.00 | 0.00 | 43 | 1011.4 |
| 20260503190233 | 12 | 234 | 3.2 | 20.9 | 0.00 | 0.00 | 0.00 | 46 | 1011.7 |
| 20260503185232 | 11 | 236 | 8.0 | 14.5 | 0.00 | 0.00 | 0.00 | 40 | 1011.8 |
| 20260503184229 | 11 | 167 | 3.2 | 29.0 | 0.00 | 0.00 | 0.00 | 43 | 1011.7 |
| 20260503183228 | 11 | 320 | 6.4 | 19.3 | 0.00 | 0.00 | 0.00 | 41 | 1011.9 |
| 20260503182225 | 11 | 284 | 9.7 | 17.7 | 0.00 | 0.00 | 0.00 | 39 | 1011.8 |
| 20260503181224 | 11 | 162 | 1.6 | 16.1 | 0.00 | 0.00 | 0.00 | 42 | 1012.1 |
| 20260503180219 | 11 | 103 | 1.6 | 24.1 | 0.00 | 0.00 | 0.00 | 40 | 1012.0 |
| 20260503175219 | 11 | 263 | 8.0 | 20.9 | 0.00 | 0.00 | 0.00 | 41 | 1012.3 |
| 20260503174218 | 10 | 258 | 6.4 | 12.9 | 0.00 | 0.00 | 0.00 | 42 | 1012.4 |
| 20260503173215 | 9 | 271 | 6.4 | 19.3 | 0.00 | 0.00 | 0.00 | 44 | 1012.6 |
| 20260503172215 | 10 | 0 | 4.8 | 17.7 | 0.00 | 0.00 | 0.00 | 43 | 1012.6 |
| 20260503171214 | 10 | 298 | 8.0 | 11.3 | 0.00 | 0.00 | 0.00 | 45 | 1012.7 |
| 20260503170214 | 9 | 313 | 8.0 | 17.7 | 0.00 | 0.00 | 0.00 | 45 | 1012.8 |
| 20260503160159 | 7 | 352 | 8.0 | 20.9 | 0.00 | 0.00 | 0.00 | 49 | 1013.2 |
| 20260503150142 | 6 | 341 | 11.3 | 17.7 | 0.00 | 0.00 | 0.00 | 50 | 1013.7 |
| 20260503140135 | 5 | 345 | 3.2 | 19.3 | 0.00 | 0.00 | 0.00 | 55 | 1013.6 |
| 20260503131128 | 4 | 0 | 8.0 | 17.7 | 0.00 | 0.00 | 0.00 | 58 | 1013.7 |
| 20260503130123 | 3 | 351 | 4.8 | 16.1 | 0.00 | 0.00 | 0.00 | 57 | 1013.8 |
| 20260503120111 | 3 | 324 | 3.2 | 9.7 | 0.00 | 0.00 | 0.00 | 74 | 1013.6 |
| 20260503081024 | 0 | 29 | 6.4 | 8.0 | 0.00 | 0.00 | 0.00 | 86 | 1012.5 |
| 20260503072014 | 0 | 15 | 6.4 | 6.4 | 0.00 | 0.00 | 0.00 | 83 | 1012.6 |
| 20260503071014 | 1 | 38 | 9.7 | 9.7 | 0.00 | 0.00 | 0.00 | 82 | 1012.6 |
| 20260503054951 | 1 | 35 | 4.8 | 6.4 | 0.00 | 0.00 | 0.00 | 83 | 1012.7 |
| 20260503053950 | 1 | 31 | 6.4 | 6.4 | 0.00 | 0.00 | 0.00 | 82 | 1012.6 |
| 20260503052950 | 1 | 39 | 4.8 | 8.0 | 0.00 | 0.00 | 0.00 | 81 | 1013.0 |
| 20260503051950 | 2 | 38 | 6.4 | 8.0 | 0.00 | 0.00 | 0.00 | 81 | 1013.3 |
| 20260503050949 | 2 | 8 | 6.4 | 12.9 | 0.00 | 0.00 | 0.00 | 78 | 1013.0 |
| 20260503045948 | 2 | 40 | 4.8 | 12.9 | 0.00 | 0.00 | 0.00 | 78 | 1013.2 |
| 20260503044948 | 2 | 31 | 6.4 | 12.9 | 0.00 | 0.00 | 0.00 | 78 | 1013.2 |
| 20260503043943 | 2 | 20 | 9.7 | 12.9 | 0.00 | 0.00 | 0.00 | 77 | 1013.2 |
| 20260503042941 | 2 | 19 | 8.0 | 9.7 | 0.00 | 0.00 | 0.00 | 77 | 1013.5 |
| 20260503041940 | 2 | 9 | 9.7 | 11.3 | 0.00 | 0.00 | 0.00 | 76 | 1013.4 |
| 20260503040940 | 2 | 20 | 6.4 | 9.7 | 0.00 | 0.00 | 0.00 | 76 | 1013.5 |
| 20260503035940 | 3 | 21 | 8.0 | 12.9 | 0.00 | 0.03 | 0.03 | 75 | 1013.6 |
| 20260503034935 | 3 | 24 | 8.0 | 8.0 | 0.00 | 0.03 | 0.03 | 76 | 1013.7 |
| 20260503033935 | 3 | 26 | 8.0 | 9.7 | 0.00 | 0.03 | 0.03 | 77 | 1013.5 |
| 20260503032930 | 3 | 36 | 6.4 | 14.5 | 0.00 | 0.03 | 0.03 | 76 | 1013.5 |
| 20260503031926 | 3 | 337 | 6.4 | 11.3 | 0.00 | 0.03 | 0.03 | 76 | 1013.7 |
| 20260503030926 | 3 | 7 | 6.4 | 9.7 | 0.00 | 0.03 | 0.03 | 75 | 1013.7 |
| 20260503025925 | 3 | 17 | 6.4 | 11.3 | 0.00 | 0.03 | 0.03 | 74 | 1013.6 |
| 20260503024926 | 3 | 17 | 9.7 | 12.9 | 0.00 | 0.03 | 0.03 | 72 | 1013.8 |
| 20260503023925 | 3 | 17 | 8.0 | 17.7 | 0.00 | 0.03 | 0.03 | 71 | 1013.5 |
| 20260503022925 | 3 | 12 | 11.3 | 12.9 | 0.00 | 0.03 | 0.03 | 70 | 1013.6 |
| 20260503021921 | 3 | 29 | 12.9 | 14.5 | 0.00 | 0.03 | 0.03 | 69 | 1013.8 |
| 20260503020921 | 4 | 33 | 11.3 | 24.1 | 0.00 | 0.03 | 0.03 | 67 | 1013.6 |
| 20260503015921 | 4 | 22 | 6.4 | 9.7 | 0.00 | 0.03 | 0.03 | 65 | 1013.5 |
| 20260503014920 | 4 | 8 | 6.4 | 9.7 | 0.00 | 0.03 | 0.03 | 65 | 1013.2 |
| 20260503013915 | 5 | 20 | 6.4 | 12.9 | 0.00 | 0.03 | 0.03 | 64 | 1013.4 |
| 20260503012915 | 5 | 344 | 9.7 | 12.9 | 0.00 | 0.03 | 0.03 | 62 | 1013.3 |
| 20260503011915 | 5 | 3 | 9.7 | 12.9 | 0.00 | 0.03 | 0.03 | 62 | 1013.1 |
| 20260503010915 | 5 | 1 | 6.4 | 11.3 | 0.00 | 0.03 | 0.03 | 65 | 1013.3 |
| 20260503005914 | 5 | 12 | 6.4 | 12.9 | 0.00 | 0.03 | 0.03 | 63 | 1013.0 |
| 20260503004914 | 5 | 44 | 6.4 | 9.7 | 0.00 | 0.03 | 0.03 | 64 | 1013.1 |
| 20260503003909 | 5 | 354 | 4.8 | 12.9 | 0.00 | 0.03 | 0.03 | 65 | 1012.7 |
| 20260503002908 | 5 | 32 | 4.8 | 6.4 | 0.00 | 0.03 | 0.03 | 68 | 1012.7 |
| 20260503001908 | 5 | 23 | 3.2 | 6.4 | 0.00 | 0.03 | 0.03 | 66 | 1012.8 |
| 20260503000902 | 5 | 0 | 3.2 | 8.0 | 0.00 | 0.03 | 0.03 | 66 | 1012.7 |
| 20260502235902 | 5 | 16 | 4.8 | 8.0 | 0.00 | 0.03 | 0.03 | 66 | 1012.6 |
| 20260502234902 | 5 | 55 | 1.6 | 6.4 | 0.00 | 0.03 | 0.03 | 64 | 1012.7 |
| 20260502233901 | 5 | 60 | 3.2 | 4.8 | 0.00 | 0.03 | 0.03 | 67 | 1012.8 |
| 20260502232900 | 5 | 28 | 4.8 | 4.8 | 0.00 | 0.03 | 0.03 | 65 | 1012.8 |
| 20260502231859 | 5 | 21 | 3.2 | 8.0 | 0.00 | 0.03 | 0.03 | 63 | 1012.6 |
| 20260502230855 | 6 | 136 | 1.6 | 6.4 | 0.00 | 0.03 | 0.03 | 65 | 1012.7 |
| 20260502225855 | 6 | 28 | 4.8 | 6.4 | 0.00 | 0.03 | 0.03 | 62 | 1012.7 |